Content
SEND FEEDBACK

Daily
Averages
Monthly
Summary
Canada

QUEBEC CITY, QUEBEC


Home > North America > Canada > Quebec
Elevation: 239 feet     Latitude: 46 48N     Longitude: 071 23W

WEATHER
 
SELECT A DAY
Number of Records: 191,739;   Date Range: 6/30/96 - 7/8/14
 
SHARE

PRINT THIS DATA

[ ← Previous Day ]
WEATHER ALMANAC - FEBRUARY 16, 2013
[ Next Day → ]
[ °C ]   °F
Weather ElementAverageHighLow
Temperature19.8 °F32 °F (1:00 am)10 °F (10:00 pm)
Dewpoint10 °F24 °F (4:00 am)3.2 °F (7:00 pm)
Humidity63.5 %80 % (3:00 am)42 % (1:00 pm)
Barometer29.96 in30.00 in (10:00 am)29.88 in (1:00 am)
Wind Speed11.1 mph19.6 mph (3:00 am)
Wind Gust27.6 mph (5:00 am)
Weather ElementAverage
Visibility19.2 mi
Wind DirectionWSW (246.7 °)

Weather ElementTotal
Precipitation---
Heating Degree Days44 (Base 65)
Averaged from 30 records on February 16, 2013
WEATHER CONDITIONS BREAKOUT
WIND DIRECTION BREAKOUT
WEATHER BY HOUR - FEBRUARY 16, 2013
[ °C ]   °F
Local TimeTemperatureDewpointHumidityBarometerVisibilityWind DirectionWind SpeedGust SpeedPrecipitationEventsConditions
1:00 AM32.0 °F23.0 °F59 %29.88 inSW (230°)6.9 mph
1:00 AM32.0 °F21.2 °F64 %29.88 in15.0 miSW (230°)11.5 mphOvercast
2:00 AM30.2 °F21.2 °F69 %29.90 in15.0 miSSW (210°)16.1 mph23.0 mphSnowLight Snow
3:00 AM28.4 °F23.0 °F80 %29.90 in15.0 miSW (230°)19.6 mphSnowLight Snow
4:00 AM28.0 °F24.0 °F80 %29.90 inSW (230°)5.8 mph
4:00 AM26.6 °F21.2 °F80 %29.90 in6.0 miWSW (240°)12.7 mph18.4 mphSnowLight Snow
5:00 AM24.8 °F15.8 °F69 %29.92 in15.0 miSW (230°)19.6 mph27.6 mphSnowLight Snow
6:00 AM21.2 °F12.2 °F68 %29.94 in15.0 miWest (260°)13.8 mphMostly Cloudy
7:00 AM17.6 °F8.6 °F68 %29.96 in20.0 miWSW (250°)11.5 mphPartly Cloudy
8:00 AM17.6 °F10.4 °F73 %29.98 in25.0 miSW (230°)9.2 mphPartly Cloudy
9:00 AM19.4 °F10.4 °F68 %29.99 in25.0 miSW (220°)11.5 mphPartly Cloudy
10:00 AM20.0 °F11.0 °F55 %29.99 inWSW (240°)8.1 mph
10:00 AM19.4 °F10.4 °F68 %30.00 in25.0 miWSW (250°)10.4 mphScattered Clouds
11:00 AM19.4 °F6.8 °F58 %30.00 in25.0 miSW (230°)19.6 mphPartly Cloudy
12:00 PM19.4 °F6.8 °F58 %29.99 in25.0 miWSW (250°)15.0 mphPartly Cloudy
1:00 PM19.4 °F6.8 °F58 %29.98 in25.0 miWSW (250°)16.1 mphPartly Cloudy
1:00 PM20.0 °F7.0 °F42 %29.97 inWSW (250°)10.4 mph
2:00 PM19.4 °F6.8 °F58 %29.98 in25.0 miWSW (250°)16.1 mphPartly Cloudy
3:00 PM19.4 °F5.0 °F54 %29.98 in25.0 miSW (230°)11.5 mphMostly Cloudy
4:00 PM19.0 °F7.0 °F45 %29.98 inSW (230°)5.8 mph
4:00 PM19.4 °F5.0 °F54 %29.98 in25.0 miSW (220°)13.8 mphMostly Cloudy
5:00 PM17.6 °F5.0 °F58 %29.98 in25.0 miSW (230°)9.2 mphMostly Cloudy
6:00 PM15.8 °F5.0 °F62 %30.00 in15.0 miWSW (250°)9.2 mphPartly Cloudy
7:00 PM14.0 °F3.2 °F62 %30.00 in15.0 miWest (260°)9.2 mphScattered Clouds
7:00 PM14.0 °F5.0 °F55 %29.99 inWSW (250°)9.2 mph
8:00 PM12.2 °F3.2 °F67 %30.00 in15.0 miWest (270°)9.2 mphMostly Cloudy
9:00 PM14.0 °F3.2 °F62 %30.00 in15.0 miWSW (250°)9.2 mphMostly Cloudy
10:00 PM10.0 °F5.0 °F70 %29.97 inNW (310°)2.3 mph
10:00 PM12.2 °F3.2 °F67 %29.97 in15.0 miWNW (300°)3.5 mphMostly Cloudy
11:00 PM12.2 °F5.0 °F73 %29.95 in15.0 miNW (320°)6.9 mphMostly Cloudy
Hourly data recorded from CYQB, located miles away from Quebec City, Quebec







STORIES FROM OUR PARTNERS